Location: Newark
(48.5667°N, 3.3000°E)
Time: 10:20:09
(UTC+00:00)

N. Korean satellite - Pass Details

Date: 30 October 2019
Orbit: 456 x 506 km, 97.2° (Epoch: 20 November)

Event Time Altitude Azimuth Distance (km) Brightness Sun altitude
Rises 05:13:11 0° 20° (NNE) 2,594 10.5 -13.1°
Reaches altitude 10° 05:15:24 10° 30° (NNE) 1,712 9.7 -12.7°
Maximum altitude 05:18:47 33° 97° (E) 856 8.6 -12.1°
Drops below altitude 10° 05:22:10 10° 163° (SSE) 1,713 9.7 -11.6°
Sets 05:24:23 0° 173° (S) 2,595 10.5 -11.2°
